Weather observations for the past three days for
Mankato, Mankato Regional Airport
Imperial (Metric)
Date Time (cdt) Wind (mph) Vis. (mi.) Weather Sky Cond. Temperature (ºF) Relative Humidity Wind Chill (°F) Heat Index (°F) Pressure Precipitation (in)
Air Dwpt 6 hour altimeter (in) sea level (mb) 1 hr 3 hr 6 hr
Max. Min.
22 22:56 NW 9 10.00 Overcast OVC013 66 63 90% 29.86 1010.9
22 21:56 NW 13 G 23 10.00 Overcast OVC015 66.9 63 87% 29.84 1010.3
22 20:56 NW 15 10.00 Overcast FEW013 OVC019 69.1 64.9 87% 29.82 1009.4
22 19:56 NW 8 10.00 Partly Cloudy SCT019 SCT060 69.1 66.9 93% 29.8 1008.9
22 18:56 N 16 G 23 10.00 Overcast SCT009 BKN019 OVC045 70 66.9 73.9 69.1 90% 29.79 1008.5 0.65
22 17:56 W 7 10.00 Overcast FEW013 BKN030 OVC049 73 69.1 87% 29.79 1008.3
22 16:56 N 10 10.00 Overcast BKN014 BKN025 OVC034 73 69.1 87% 29.79 1008.3
22 15:56 NE 5 10.00 Mostly Cloudy SCT006 SCT021 BKN039 72 69.1 91% 29.78 1008.3 0.07 0.65
22 14:56 N 6 6.00 Thunderstorm in Vicinity Heavy Rain Fog/Mist BKN008 OVC028 69.1 68 96% 29.81 1009.2 0.4
22 13:56 Calm 4.00 Heavy Rain Fog/Mist FEW018 BKN025 OVC030 70 68 93% 29.82 1009.6 0.18
22 12:56 NE 7 10.00 Overcast SCT023 OVC085 73.9 66.9 75 66 79% 29.79 1008.6
22 11:56 Calm 10.00 Overcast OVC021 73 66.9 81% 29.82 1009.6
22 10:56 NE 3 10.00 Mostly Cloudy BKN014 72 66.9 84% 29.83 1009.8
22 09:56 Calm 10.00 Overcast OVC008 70 66.9 90% 29.85 1010.5
22 08:56 N 8 10.00 Overcast BKN006 OVC120 69.1 66.9 93% 29.86 1010.8
22 07:56 NW 7 10.00 Overcast OVC002 66.9 66.9 100% 29.87 1011.3
22 06:56 Calm 10.00 Mostly Cloudy BKN065 66 66 68 64.9 100% 29.88 1011.5 0.13
22 05:56 Calm 10.00 Fair CLR 64.9 64.9 100% 29.88 1011.5
22 04:56 Calm 10.00 Fair CLR 66 66 100% 29.86 1011.1
22 03:56 W 5 10.00 Fair CLR 66 66 100% 29.9 1012.2 0.01 0.13
22 02:56 SE 14 10.00 Light Rain FEW080 BKN100 BKN120 66.9 66 97% 29.85 1010.6 0.03
22 01:56 E 12 10.00 Light Rain OVC110 66.9 66.9 100% 29.91 1012.5 0.09
22 00:56 SE 12 5.00 Rain Fog/Mist BKN060 OVC075 66.9 66.9 71.1 66.9 100% 29.96 1014.3 0.24 0.94
21 23:56 E 9 7.00 Rain FEW050 BKN070 OVC085 68 66.9 96% 29.97 1014.6 0.15
21 22:56 E 9 5.00 Thunderstorm Rain Fog/Mist SCT030 BKN050 OVC070 68 68 100% 29.97 1014.9 0.53
21 21:56 NW 21 G 28 10.00 Rain and Breezy SCT008 BKN017 OVC110 69.1 68 96% 30 1015.6 0.02 0.02
21 20:56 E 7 10.00 Mostly Cloudy BKN047 BKN060 70 68 93% 29.97 1014.7
21 19:56 E 7 10.00 A Few Clouds FEW055 71.1 69.1 94% 29.99 1015.2
21 18:56 E 10 10.00 Mostly Cloudy FEW008 BKN050 BKN060 71.1 69.1 71.1 66.9 94% 30.01 1016.1 0.13
21 17:56 NE 9 10.00 Mostly Cloudy BKN008 BKN100 70 68 93% 30.03 1016.9 0.01
21 16:56 NE 12 5.00 Heavy Rain Fog/Mist BKN011 BKN021 OVC033 69.1 68 96% 30.07 1018.1 0.07
21 15:56 NE 9 10.00 Overcast SCT009 SCT013 OVC100 70 68 93% 30.07 1018.3 0.05
21 14:56 E 10 10.00 Overcast OVC005 69.1 68 96% 30.09 1018.8
21 13:56 E 9 10.00 Overcast OVC005 68 66.9 96% 30.1 1019.3 0.05
21 12:56 NE 5 6.00 Rain Fog/Mist FEW003 BKN010 OVC048 66.9 66.9 68 64.9 100% 30.14 1020.5 0.25 0.95
21 11:56 Calm 1.00 Heavy Rain Fog/Mist BKN010 BKN015 OVC022 66.9 66 97% 30.15 1021.1 0.61
21 10:56 E 6 1.50 Heavy Rain Fog/Mist OVC009 66.9 66 97% 30.14 1020.6 0.08
21 09:56 SE 10 10.00 Overcast BKN009 OVC050 68 66 93% 30.13 1020.4 0.01
21 08:56 E 8 10.00 Partly Cloudy SCT005 66.9 66 97% 30.15 1020.9
21 07:56 E 8 10.00 Thunderstorm in Vicinity BKN005 OVC100 66 64.9 96% 30.16 1021.2 0.01
21 06:56 E 14 9.00 Light Rain SCT003 BKN013 OVC050 64.9 64.9 64.9 63 100% 30.14 1020.8 0.21 0.9
21 05:56 NE 8 7.00 Thunderstorm in Vicinity Rain BKN003 OVC015 64 64 100% 30.19 1022.3 0.16
21 04:56 N 9 5.00 Thunderstorm in Vicinity Rain Fog/Mist SCT003 BKN007 OVC026 64 64 100% 30.2 1022.8 0.23
21 03:56 NE 8 5.00 Light Rain Fog/Mist OVC003 64.9 64.9 100% 30.19 1022.2 0.12 0.3
21 02:56 E 7 4.00 Heavy Rain Fog/Mist BKN005 OVC009 64.9 64.9 100% 30.21 1023.0 0.14
21 01:56 E 8 7.00 Light Rain FEW026 BKN095 OVC120 64.9 64 97% 30.21 1023.0 0.04
21 00:56 E 8 10.00 Light Rain BKN023 BKN029 63 63 63 60.1 100% 30.24 1024.1 0.01 0.17
20 23:56 E 8 10.00 Light Rain BKN011 BKN027 62.1 61 96% 30.24 1024.1
20 22:56 E 8 10.00 Light Rain BKN120 62.1 60.1 93% 30.23 1023.7
20 21:56 NE 7 10.00 Mostly Cloudy FEW009 BKN030 BKN110 61 60.1 97% 30.26 1024.8 0.01 0.16
20 20:56 N 6 10.00 Light Rain BKN027 BKN046 61 60.1 97% 30.27 1025.2 0.03
20 19:56 E 9 6.00 Rain Fog/Mist FEW026 BKN045 OVC080 61 59 93% 30.27 1025.3 0.12
20 18:56 N 8 10.00 Light Rain SCT016 BKN036 OVC070 61 60.1 64.9 61 97% 30.3 1026.2 0.2 0.41
20 17:56 N 5 10.00 Rain FEW060 SCT075 OVC090 62.1 60.1 93% 30.29 1026.0 0.09
20 16:56 E 7 10.00 Light Rain FEW036 SCT047 OVC070 62.1 60.1 93% 30.26 1024.7 0.01
20 15:56 N 7 10.00 Light Rain FEW039 SCT049 BKN060 62.1 57 84% 30.31 1026.6 0.03 0.11
20 14:56 NE 8 10.00 Light Rain FEW035 BKN075 OVC090 63 57 81% 30.32 1026.8 0.02
20 13:56 N 5 10.00 Light Rain OVC070 63 59 87% 30.35 1028.0 0.06
20 12:56 NW 7 10.00 Light Rain OVC070 64.9 59 68 61 81% 30.36 1028.2
20 11:56 NE 6 10.00 Overcast OVC095 68 59 73% 30.33 1027.1
20 10:56 NE 6 10.00 Overcast FEW075 OVC110 66.9 57 71% 30.35 1027.5
20 09:56 NE 6 10.00 Fair CLR 66.9 57.9 73% 30.33 1027.0
20 08:56 E 7 10.00 Fair CLR 64 57.9 81% 30.33 1027.0
20 07:56 NE 6 10.00 Fair CLR 63 57 81% 30.34 1027.6
20 06:56 N 6 10.00 Fair CLR 62.1 57 64 60.1 84% 30.36 1028.1
20 05:56 NE 5 10.00 Fair CLR 61 55.9 84% 30.35 1027.7
20 04:56 E 8 10.00 Fair CLR 61 55.9 84% 30.33 1027.0
20 03:56 NE 6 10.00 Fair CLR 60.1 57 90% 30.34 1027.6
20 02:56 N 6 10.00 Fair CLR 61 59 93% 30.34 1027.5
20 01:56 N 3 10.00 Mostly Cloudy BKN120 63 57.9 84% 30.33 1027.2
20 00:56 Calm 10.00 Fair CLR 64 59 70 64 84% 30.32 1026.6
19 23:56 E 3 10.00 Fair CLR 64 57.9 81% 30.32 1026.8
Date Time (cdt) Wind (mph) Vis. (mi.) Weather Sky Cond. Air Dwpt Max. Min. Relative Humidity Wind Chill (°F) Heat Index (°F) altimeter (in) sea level (mb) 1 hr 3 hr 6 hr
6 hour
Temperature (ºF) Pressure Precipitation (in)